CW9692 Weather Reports


time (UTC)temp
C
wind
direction
speed
KPH
gust
KPH
rain 1hr
cm
rain 24hr
cm
rain mn
cm
humidity
%
barometer
mb
20260507101532 11 355 0.0 0.0 0.00 0.89 0.61 92 1012.5
20260507100025 11 355 0.0 1.6 0.00 0.89 0.61 92 1012.4
20260507094528 11 352 0.0 0.0 0.00 0.89 0.61 92 1012.5
20260507093026 11 352 0.0 1.6 0.00 0.89 0.61 91 1012.4
20260507091523 11 360 0.0 3.2 0.00 0.89 0.61 92 1012.5
20260507090024 11 5 0.0 0.0 0.00 0.89 0.61 92 1012.2
20260507084526 12 329 0.0 0.0 0.00 0.89 0.61 92 1012.3
20260507083030 12 329 0.0 0.0 0.00 0.89 0.61 92 1012.0
20260507081516 12 355 0.0 4.8 0.00 0.89 0.61 92 1011.5
20260507080022 12 24 0.0 0.0 0.00 0.89 0.61 92 1011.2
20260507074523 12 18 1.6 8.0 0.00 0.89 0.61 93 1011.1
20260507073024 12 360 1.6 8.0 0.00 0.89 0.61 93 1011.0
20260507071529 12 315 1.6 6.4 0.00 0.89 0.61 93 1010.8
20260507070026 12 311 0.0 9.7 0.00 0.89 0.61 93 1010.9
20260507064523 13 320 4.8 14.5 0.00 0.89 0.61 92 1010.7
20260507063025 13 309 3.2 12.9 0.05 0.89 0.61 92 1010.3
20260507061510 13 344 0.0 6.4 0.20 0.89 0.61 91 1010.3
20260507060020 14 352 0.0 11.3 0.30 0.89 0.61 91 1010.7
20260507054518 15 318 0.0 8.0 0.38 0.89 0.61 91 1010.7
20260507053006 15 301 0.0 9.7 0.56 0.84 0.56 90 1010.8
20260507051508 15 302 0.0 4.8 0.41 0.69 0.41 88 1010.8
20260507050022 16 313 0.0 0.0 0.30 0.58 0.30 86 1010.3
20260507044518 16 313 1.6 8.0 0.23 0.51 0.23 84 1011.1
20260507043020 16 295 1.6 12.9 0.00 0.28 0.00 81 1010.9
20260507041505 16 291 3.2 11.3 0.00 0.28 0.00 80 1010.5
20260507040014 17 310 4.8 16.1 0.00 0.28 0.00 85 1010.4
20260507034513 17 262 0.0 4.8 0.00 0.28 0.28 90 1010.4
20260507033027 17 257 0.0 4.8 0.00 0.28 0.28 90 1010.2
20260507031532 17 270 0.0 9.7 0.00 0.28 0.28 90 1010.1
20260507030025 17 251 1.6 6.4 0.00 0.28 0.28 90 1010.1
20260507024513 17 215 0.0 0.0 0.00 0.28 0.28 89 1009.7
20260507023020 17 215 0.0 0.0 0.00 0.28 0.28 89 1009.6
20260507021522 17 215 0.0 0.0 0.00 0.28 0.28 89 1009.5
20260507020026 18 215 0.0 0.0 0.00 0.28 0.28 88 1009.6
20260507014511 18 215 0.0 0.0 0.00 0.28 0.28 88 1009.5
20260507013018 18 215 0.0 0.0 0.00 0.28 0.28 87 1010.1
20260507011529 18 215 0.0 0.0 0.00 0.28 0.28 86 1010.2
20260507010034 18 215 0.0 0.0 0.00 0.28 0.28 84 1010.1
20260507004527 18 215 0.0 0.0 0.00 0.28 0.28 83 1009.5
20260507003013 19 215 0.0 0.0 0.00 0.28 0.28 83 1009.7
20260507001525 19 215 0.0 0.0 0.00 0.28 0.28 82 1009.6
20260507000022 20 215 0.0 0.0 0.00 0.28 0.28 81 1009.6
20260506234526 20 215 0.0 0.0 0.00 0.28 0.28 80 1009.3
20260506233028 20 215 0.0 4.8 0.00 0.28 0.28 79 1009.2
20260506231519 20 215 0.0 4.8 0.00 0.28 0.28 78 1009.0
20260506230023 20 215 1.6 6.4 0.00 0.28 0.28 78 1009.2
20260506224526 20 210 0.0 11.3 0.00 0.28 0.28 77 1008.8
20260506223028 20 244 6.4 14.5 0.00 0.28 0.28 76 1009.1
20260506221525 21 217 4.8 14.5 0.00 0.28 0.28 75 1009.1
20260506220020 21 209 3.2 11.3 0.00 0.28 0.28 75 1009.0
20260506214521 21 267 1.6 11.3 0.00 0.28 0.28 74 1009.1
20260506213024 21 262 1.6 16.1 0.00 0.28 0.28 74 1008.8
20260506211519 21 241 3.2 14.5 0.00 0.28 0.28 75 1008.8
20260506210031 21 229 4.8 14.5 0.00 0.28 0.28 75 1008.5
20260506204519 21 235 6.4 14.5 0.00 0.28 0.28 76 1008.5
20260506203005 20 236 6.4 19.3 0.00 0.28 0.28 77 1008.6
20260506201511 20 226 4.8 17.7 0.00 0.28 0.28 77 1008.6
20260506200012 20 201 8.0 16.1 0.00 0.28 0.28 76 1008.6
20260506194518 20 235 6.4 19.3 0.00 0.28 0.28 77 1008.5
20260506193023 20 230 1.6 17.7 0.00 0.28 0.28 78 1008.8
20260506191504 20 198 3.2 16.1 0.00 0.28 0.28 77 1008.9
20260506190013 20 256 1.6 12.9 0.00 0.28 0.28 77 1009.1
20260506184518 20 212 3.2 17.7 0.00 0.28 0.28 77 1009.2
20260506183022 20 244 6.4 20.9 0.00 0.28 0.28 77 1009.4
20260506181525 20 204 4.8 19.3 0.00 0.28 0.28 79 1009.6
20260506180014 19 223 1.6 22.5 0.00 0.28 0.28 82 1009.8
20260506174511 18 223 4.8 19.3 0.00 0.28 0.28 82 1009.8
20260506173022 18 242 9.7 22.5 0.00 0.28 0.28 82 1009.8
20260506171530 18 273 3.2 17.7 0.00 0.28 0.28 84 1010.1
20260506170029 18 186 8.0 22.5 0.00 0.28 0.28 86 1010.0
20260506164526 17 234 8.0 22.5 0.00 0.28 0.28 87 1010.2
20260506163025 17 182 4.8 19.3 0.03 0.28 0.28 89 1010.1
20260506161522 17 243 9.7 24.1 0.05 0.28 0.28 91 1010.1
20260506160027 16 197 8.0 19.3 0.05 0.28 0.28 91 1010.6
20260506154527 16 225 1.6 14.5 0.10 0.28 0.28 91 1010.4
20260506153013 16 207 3.2 16.1 0.18 0.25 0.25 90 1010.7
20260506151523 16 219 1.6 14.5 0.18 0.23 0.23 90 1011.3
20260506150024 16 201 1.6 12.9 0.20 0.23 0.23 89 1011.2
20260506144532 16 184 1.6 17.7 0.18 0.18 0.18 87 1011.3
20260506143027 16 198 0.0 12.9 0.08 0.08 0.08 85 1011.3
20260506141516 17 205 1.6 11.3 0.05 0.05 0.05 83 1011.4
20260506140021 17 204 3.2 17.7 0.03 0.03 0.03 79 1011.5
20260506134524 18 216 1.6 14.5 0.00 0.00 0.00 76 1011.5
20260506133025 18 216 3.2 9.7 0.00 0.00 0.00 74 1011.5
20260506131531 18 240 1.6 16.1 0.00 0.00 0.00 73 1011.3
20260506130020 18 207 4.8 17.7 0.00 0.00 0.00 73 1011.1
20260506124524 18 202 4.8 11.3 0.00 0.00 0.00 74 1011.1
20260506123025 18 201 6.4 17.7 0.00 0.00 0.00 73 1011.1
20260506121508 18 233 3.2 14.5 0.00 0.00 0.00 73 1011.2
20260506120003 18 218 3.2 19.3 0.00 0.00 0.00 74 1011.3
20260506114504 18 209 4.8 14.5 0.00 0.00 0.00 74 1011.1
20260506113007 18 227 3.2 12.9 0.00 0.00 0.00 75 1010.9
20260506111507 17 148 4.8 19.3 0.00 0.00 0.00 76 1010.8
20260506110011 17 212 1.6 16.1 0.00 0.00 0.00 76 1010.7
20260506104504 17 194 6.4 16.1 0.00 0.00 0.00 77 1010.8
20260506103006 17 196 6.4 17.7 0.00 0.00 0.00 77 1010.6